• In Belarus
  • List of Countries
  • For 7 days
  • Water Temperature
  • Satellite Maps
  • Weather Map
  • Weather Widgets
  • user-avatar
    Login

    Hourly Weather Tskhaltubo

    Today, 19 January, Friday

    Time Temperature Precipitation Wind Pressure Humidity
    00:00 +6°C° 0.6 mm 4 mps 733 mmHg 75%
    01:00 +6°C° 0.7 mm 4 mps 733 mmHg 75%
    02:00 +7°C° 0.7 mm 4 mps 734 mmHg 75%
    03:00 +8°C° 0 mm 2 mps 734 mmHg 79%
    04:00 +8°C° 0.4 mm 2 mps 734 mmHg 78%
    05:00 +8°C° 0.4 mm 2 mps 735 mmHg 77%
    06:00 +8°C° 0.4 mm 3 mps 735 mmHg 76%
    07:00 +8°C° 0.2 mm 2 mps 735 mmHg 76%
    08:00 +8°C° 0.2 mm 2 mps 736 mmHg 76%
    09:00 +8°C° 0.2 mm 2 mps 736 mmHg 76%
    10:00 +9°C° 0.1 mm 2 mps 737 mmHg 77%
    11:00 +10°C° 0.1 mm 1 mps 737 mmHg 77%
    12:00 +11°C° 0.1 mm 1 mps 737 mmHg 78%
    13:00 +11°C° 0.2 mm 1 mps 738 mmHg 82%
    14:00 +10°C° 0.2 mm 1 mps 738 mmHg 86%
    15:00 +9°C° 0.2 mm 2 mps 739 mmHg 89%
    16:00 +8°C° 0.7 mm 2 mps 740 mmHg 92%
    17:00 +8°C° 0.7 mm 2 mps 741 mmHg 94%
    18:00 +7°C° 0.7 mm 2 mps 742 mmHg 96%
    19:00 +7°C° 1 mm 2 mps 742 mmHg 96%
    20:00 +7°C° 1 mm 2 mps 743 mmHg 96%
    21:00 +7°C° 1 mm 2 mps 743 mmHg 96%
    22:00 +6°C° 0.6 mm 2 mps 744 mmHg 96%
    23:00 +6°C° 0.6 mm 2 mps 744 mmHg 96%

    Tomorrow, 20 January, Saturday

    Time Temperature Precipitation Wind Pressure Humidity
    00:00 +6°C° 0.6 mm 2 mps 745 mmHg 96%
    01:00 +6°C° 0.6 mm 2 mps 745 mmHg 95%
    02:00 +6°C° 0.6 mm 2 mps 746 mmHg 94%
    03:00 +6°C° 0.6 mm 2 mps 746 mmHg 94%
    04:00 +6°C° 0.6 mm 1 mps 747 mmHg 93%
    05:00 +6°C° 0.6 mm 1 mps 747 mmHg 92%
    06:00 +6°C° 0.6 mm 1 mps 747 mmHg 92%
    07:00 +6°C° 0.3 mm 1 mps 747 mmHg 91%
    08:00 +7°C° 0.3 mm 1 mps 748 mmHg 89%
    09:00 +6°C° 0.3 mm 0 mps 748 mmHg 88%
    10:00 +8°C° 0 mm 1 mps 747 mmHg 85%
    11:00 +9°C° 0 mm 1 mps 747 mmHg 82%
    12:00 +10°C° 0 mm 1 mps 747 mmHg 79%
    13:00 +10°C° 0 mm 1 mps 746 mmHg 77%
    14:00 +10°C° 0 mm 1 mps 746 mmHg 75%
    15:00 +11°C° 0 mm 1 mps 746 mmHg 74%
    16:00 +10°C° 0 mm 1 mps 746 mmHg 75%
    17:00 +8°C° 0 mm 2 mps 746 mmHg 75%
    18:00 +7°C° 0 mm 2 mps 747 mmHg 76%
    19:00 +7°C° 0 mm 2 mps 747 mmHg 72%
    20:00 +5°C° 0 mm 3 mps 746 mmHg 67%
    21:00 +5°C° 0 mm 3 mps 746 mmHg 62%
    22:00 +5°C° 0 mm 3 mps 746 mmHg 61%
    23:00 +5°C° 0 mm 3 mps 746 mmHg 59%

    Day after tomorrow, 21 January, Sunday

    Time Temperature Precipitation Wind Pressure Humidity
    00:00 +7°C° 0 mm 3 mps 746 mmHg 57%
    01:00 +5°C° 0 mm 3 mps 746 mmHg 58%
    02:00 +5°C° 0 mm 3 mps 746 mmHg 58%
    03:00 +5°C° 0 mm 3 mps 746 mmHg 58%
    04:00 +5°C° 0 mm 3 mps 746 mmHg 58%
    05:00 +5°C° 0 mm 3 mps 745 mmHg 57%
    06:00 +5°C° 0 mm 3 mps 745 mmHg 57%
    07:00 +5°C° 0 mm 3 mps 745 mmHg 56%
    08:00 +7°C° 0 mm 3 mps 745 mmHg 55%
    09:00 +7°C° 0 mm 3 mps 746 mmHg 54%
    10:00 +9°C° 0 mm 2 mps 745 mmHg 53%
    11:00 +12°C° 0 mm 2 mps 745 mmHg 52%
    12:00 +13°C° 0 mm 2 mps 745 mmHg 51%
    13:00 +14°C° 0 mm 1 mps 745 mmHg 52%
    14:00 +14°C° 0 mm 1 mps 745 mmHg 53%
    15:00 +14°C° 0 mm 1 mps 745 mmHg 54%
    16:00 +12°C° 0 mm 1 mps 745 mmHg 57%
    17:00 +11°C° 0 mm 1 mps 745 mmHg 59%
    18:00 +8°C° 0 mm 2 mps 746 mmHg 62%
    19:00 +8°C° 0 mm 2 mps 746 mmHg 61%
    20:00 +7°C° 0 mm 2 mps 746 mmHg 60%
    21:00 +7°C° 0 mm 3 mps 745 mmHg 59%
    22:00 +7°C° 0 mm 3 mps 745 mmHg 57%
    23:00 +7°C° 0 mm 3 mps 744 mmHg 55%

    22 January, Monday

    Time Temperature Precipitation Wind Pressure Humidity
    00:00 +7°C° 0 mm 3 mps 744 mmHg 54%
    01:00 +7°C° 0 mm 3 mps 743 mmHg 53%
    02:00 +7°C° 0 mm 3 mps 742 mmHg 53%
    03:00 +8°C° 0 mm 3 mps 742 mmHg 53%
    04:00 +8°C° 0 mm 3 mps 741 mmHg 53%
    05:00 +7°C° 0 mm 3 mps 741 mmHg 53%
    06:00 +7°C° 0 mm 3 mps 740 mmHg 53%
    07:00 +8°C° 0 mm 3 mps 740 mmHg 52%
    08:00 +8°C° 0 mm 3 mps 740 mmHg 51%
    09:00 +9°C° 0 mm 3 mps 740 mmHg 51%
    10:00 +10°C° 0 mm 3 mps 739 mmHg 49%
    11:00 +11°C° 0 mm 3 mps 738 mmHg 47%
    12:00 +13°C° 0 mm 3 mps 737 mmHg 46%
    13:00 +13°C° 0 mm 3 mps 737 mmHg 46%
    14:00 +13°C° 0 mm 3 mps 737 mmHg 47%
    15:00 +13°C° 0 mm 3 mps 736 mmHg 48%
    16:00 +11°C° 0 mm 3 mps 737 mmHg 50%
    17:00 +10°C° 0 mm 3 mps 737 mmHg 52%
    18:00 +9°C° 0 mm 3 mps 737 mmHg 54%
    19:00 +9°C° 0 mm 3 mps 737 mmHg 54%
    20:00 +8°C° 0 mm 3 mps 737 mmHg 55%
    21:00 +8°C° 0 mm 2 mps 738 mmHg 56%
    22:00 +8°C° 0 mm 2 mps 737 mmHg 57%
    23:00 +8°C° 0 mm 2 mps 737 mmHg 58%

    23 January, Tuesday

    Time Temperature Precipitation Wind Pressure Humidity
    00:00 +8°C° 0 mm 2 mps 737 mmHg 60%
    01:00 +7°C° 0 mm 3 mps 737 mmHg 60%
    02:00 +7°C° 0 mm 3 mps 738 mmHg 61%
    03:00 +7°C° 0 mm 3 mps 738 mmHg 62%
    04:00 +5°C° 0 mm 3 mps 738 mmHg 61%
    05:00 +5°C° 0 mm 3 mps 738 mmHg 61%
    06:00 +5°C° 0 mm 3 mps 738 mmHg 61%
    07:00 +6°C° 0 mm 2 mps 738 mmHg 61%
    08:00 +7°C° 0 mm 2 mps 738 mmHg 60%
    09:00 +7°C° 0 mm 2 mps 739 mmHg 60%
    10:00 +10°C° 0 mm 1 mps 738 mmHg 57%
    11:00 +11°C° 0 mm 1 mps 738 mmHg 54%
    12:00 +12°C° 0 mm 1 mps 738 mmHg 52%
    13:00 +12°C° 0 mm 1 mps 738 mmHg 57%
    14:00 +10°C° 0 mm 2 mps 738 mmHg 62%
    15:00 +10°C° 0 mm 2 mps 739 mmHg 68%
    16:00 +9°C° 0.3 mm 2 mps 739 mmHg 76%
    17:00 +8°C° 0.3 mm 2 mps 740 mmHg 84%
    18:00 +5°C° 0.3 mm 3 mps 740 mmHg 92%
    19:00 +5°C° 0.7 mm 3 mps 741 mmHg 93%
    20:00 +5°C° 0.7 mm 3 mps 741 mmHg 93%
    21:00 +5°C° 0.7 mm 3 mps 742 mmHg 93%
    22:00 +5°C° 0.8 mm 2 mps 742 mmHg 93%
    23:00 +5°C° 0.8 mm 2 mps 742 mmHg 94%

    24 January, Wednesday

    Time Temperature Precipitation Wind Pressure Humidity
    00:00 +5°C° 0.8 mm 2 mps 742 mmHg 94%
    01:00 +5°C° 0.6 mm 2 mps 743 mmHg 94%
    02:00 +5°C° 0.6 mm 2 mps 743 mmHg 94%
    03:00 +4°C° 0.6 mm 2 mps 744 mmHg 94%
    04:00 +4°C° 0.5 mm 2 mps 744 mmHg 94%
    05:00 +4°C° 0.5 mm 2 mps 744 mmHg 94%
    06:00 +4°C° 0.5 mm 2 mps 745 mmHg 94%
    07:00 +4°C° 0.3 mm 2 mps 745 mmHg 93%
    08:00 +4°C° 0.3 mm 2 mps 745 mmHg 92%
    09:00 +5°C° 0.3 mm 1 mps 746 mmHg 91%
    10:00 +5°C° 0.2 mm 2 mps 746 mmHg 88%
    11:00 +5°C° 0.2 mm 2 mps 746 mmHg 85%
    12:00 +5°C° 0.2 mm 2 mps 746 mmHg 83%
    13:00 +6°C° 0.1 mm 2 mps 746 mmHg 82%
    14:00 +6°C° 0.1 mm 2 mps 746 mmHg 81%
    15:00 +6°C° 0.1 mm 2 mps 746 mmHg 81%
    16:00 +5°C° 0.1 mm 2 mps 747 mmHg 84%
    17:00 +5°C° 0.1 mm 1 mps 747 mmHg 87%
    18:00 +5°C° 0.1 mm 1 mps 748 mmHg 91%
    19:00 +5°C° 0 mm 1 mps 748 mmHg 91%
    20:00 +4°C° 0 mm 1 mps 749 mmHg 91%
    21:00 +3°C° 0 mm 0 mps 749 mmHg 92%
    22:00 +3°C° 0 mm 0 mps 749 mmHg 91%
    23:00 +3°C° 0 mm 0 mps 749 mmHg 91%
    Show more